CST,Max TemperatureF,Mean TemperatureF,Min TemperatureF,Max Dew PointF,MeanDew PointF,Min DewpointF,Max Humidity, Mean Humidity, Min Humidity, Max Sea Level PressureIn, Mean Sea Level PressureIn, Min Sea Level PressureIn, Max VisibilityMiles, Mean VisibilityMiles, Min VisibilityMiles, Max Wind SpeedMPH, Mean Wind SpeedMPH, Max Gust SpeedMPH,PrecipitationIn, CloudCover, Events, WindDirDegrees
2013-1-1,33,26,17,30,20,10,93,78,64,30.26,30.18,30.09,10,7,2,9,4,,0.03,7,,358
2013-1-2,28,20,12,16,12,7,92,73,54,30.31,30.26,30.23,10,10,6,5,1,,0.01,0,,180
2013-1-3,37,24,12,25,19,7,93,78,56,30.41,30.34,30.24,10,10,7,8,1,,0.07,2,,260
2013-1-4,37,27,17,25,21,14,93,79,60,30.47,30.40,30.35,10,9,5,12,2,,0.01,2,,246
2013-1-5,39,29,19,32,26,16,93,81,70,30.36,30.28,30.16,10,9,6,13,4,,0.02,5,,202
2013-1-6,37,28,19,32,25,16,93,76,60,30.41,30.24,30.09,10,9,5,13,7,20,0.00,5,,265
2013-1-7,39,27,15,27,21,10,93,79,56,30.47,30.36,30.22,10,7,3,13,2,17,0.00,0,,154
2013-1-8,48,34,19,34,27,16,100,73,50,30.28,30.22,30.18,10,9,5,12,3,,0.00,2,,177
2013-1-9,55,45,35,46,38,30,100,76,51,30.50,30.40,30.22,10,9,0,10,5,,0.22,3,,313
2013-1-10,60,49,39,59,42,32,100,84,66,30.49,30.19,29.84,10,6,0,14,9,21,0.34,7,,78
2013-1-11,60,55,50,59,49,45,94,81,63,29.96,29.90,29.83,10,10,7,20,11,25,0.02,2,,198
2013-1-12,60,50,37,55,48,34,94,88,81,29.99,29.89,29.75,10,9,5,15,6,20,1.93,4,Thunderstorm,236
2013-1-13,37,29,21,34,24,14,93,81,68,30.35,30.08,29.86,10,8,1,12,5,20,0.29,7,,343
2013-1-14,26,22,17,18,15,10,86,74,64,30.49,30.43,30.36,10,10,10,7,1,,0.00,2,,18
2013-1-15,28,22,17,21,18,14,93,78,64,30.40,30.29,30.14,10,10,7,10,3,16,0.00,3,,27
2013-1-16,35,30,24,25,23,21,86,73,56,30.16,30.12,30.06,10,9,4,9,2,,0.05,3,,227
2013-1-17,41,32,23,32,25,19,86,71,56,30.51,30.31,30.13,10,10,10,10,3,20,0.04,3,,355
2013-1-18,44,32,19,30,24,16,93,73,53,30.54,30.41,30.21,10,10,7,17,5,23,0.11,0,,193
2013-1-19,53,44,35,39,33,27,87,65,51,30.23,30.10,29.97,10,10,10,24,15,31,0.00,0,,210
2013-1-20,44,35,24,30,17,10,75,53,36,30.35,30.27,30.11,10,10,10,10,4,20,0.00,1,,342
2013-1-21,24,20,15,16,5,-2,69,50,36,30.39,30.33,30.26,10,10,10,13,4,24,0.00,3,,309
2013-1-22,19,16,12,12,4,-2,79,58,45,30.49,30.42,30.39,10,10,10,7,1,,0.00,5,,282
2013-1-23,39,26,12,21,16,9,92,69,48,30.39,30.28,30.16,10,10,10,9,2,22,0.00,0,,238
2013-1-24,28,22,17,16,8,0,68,52,43,30.62,30.46,30.30,10,10,10,14,8,20,0.00,2,,54
2013-1-25,39,32,24,23,15,7,86,57,43,30.29,30.18,30.13,10,10,10,10,5,,0.00,4,,246
2013-1-26,37,29,21,25,17,10,93,62,41,30.42,30.34,30.23,10,10,7,7,2,,0.00,0,,50
2013-1-27,48,36,26,45,30,18,93,82,64,30.35,30.21,30.05,10,6,2,13,6,20,0.18,6,,131
2013-1-28,60,54,48,57,52,45,100,89,82,30.07,30.02,29.98,10,8,2,20,11,21,0.01,7,,193
2013-1-29,66,60,53,59,56,50,88,81,68,29.97,29.73,29.40,10,10,2,45,16,59,1.10,8,Thunderstorm,191
2013-1-30,53,40,28,52,36,16,94,76,55,29.90,29.57,29.41,10,10,6,22,9,30,0.30,8,,245
2013-1-31,33,24,14,27,16,3,86,62,49,30.33,30.06,29.91,10,9,0,18,10,25,0.00,7,,270